Weather History for Spokane Fairchild, WA

Change the Weather History Date:

Monday, March 11, 2013

  Actual Average Record
Temperature  
Mean Temperature 38 °F -  
Max Temperature 48 °F 45 °F 64 °F (2005)
Min Temperature 28 °F 28 °F 2 °F (2009)
Degree Days  
Heating Degree Days 27    
Moisture  
Dew Point 29 °F    
Average Humidity 89    
Maximum Humidity 100    
Minimum Humidity 35    
Precipitation  
Precipitation 0.00 in - - ()
Sea Level Pressure  
Sea Level Pressure 30.27 in    
Wind  
Wind Speed 5 mph (SSW)    
Max Wind Speed 10 mph    
Max Gust Speed -    
Visibility 5 miles    
Events Fog    
Averages and records for this station are not official NWS values.
T = Trace of Precipitation, MM = Missing Value Source: NWS Daily Summary

Daily Weather History Graph

Daily Weather History Graph

Search for Another Location

Airport:

Trip Planner

Search our weather history database for the weather conditions in past years. The results will help you decide how hot, cold, wet, or windy it might be!

Date:

Astronomy

Mar. 11, 2013 Rise Set
Actual Time 7:10 AM PDT 6:50 PM PDT
Civil Twilight 6:40 AM PDT 7:21 PM PDT
Nautical Twilight 6:04 AM PDT 7:57 PM PDT
Astronomical Twilight 5:28 AM PDT 8:33 PM PDT
Moon 6:45 AM PDT (3/11) 7:12 PM PDT (3/11)
Length of Visible Light 12h 41m
Length of Day
11h 39m
Waning Crescent, 0% of the Moon is Illuminated
Mar 11
Waning Crescent
Mar 11
New
Mar 19
First Quarter
Mar 27
Full
Apr 2
Last Quarter

Hourly Weather History & Observations

Time (PDT) Temp. Windchill Dew Point Humidity Pressure Visibility Wind Dir Wind Speed Gust Speed Precip Events Conditions
12:21 AM 32.0 °F 24.2 °F 32.0 °F 100% 30.19 in 10.0 mi South 9.2 mph - N/A   Clear
12:35 AM 32.0 °F 24.8 °F 32.0 °F 100% 30.19 in 10.0 mi South 8.1 mph - N/A   Clear
12:58 AM 33.8 °F 27.7 °F 33.3 °F 98% 30.26 in 10.0 mi South 6.9 mph - 0.00 in   Clear
1:58 AM 32.2 °F 23.8 °F 32.0 °F 99% 30.27 in 10.0 mi South 10.4 mph - N/A   Clear
2:23 AM 32.0 °F - 32.0 °F 100% 30.21 in 10.0 mi Variable 2.3 mph - N/A   Clear
2:46 AM 32.0 °F 25.6 °F 32.0 °F 100% 30.22 in 10.0 mi SW 6.9 mph - N/A   Clear
2:58 AM 32.5 °F 29.3 °F 31.1 °F 94% 30.29 in 10.0 mi WSW 3.5 mph - 0.00 in   Clear
3:58 AM 30.6 °F - 30.0 °F 98% 30.28 in 10.0 mi Calm Calm - N/A   Overcast
4:53 AM 32.0 °F 26.4 °F 30.2 °F 93% 30.23 in 10.0 mi SW 5.8 mph - N/A   Overcast
4:58 AM 30.7 °F 24.9 °F 29.7 °F 96% 30.29 in 10.0 mi SW 5.8 mph - 0.00 in   Overcast
5:22 AM 30.2 °F - 28.4 °F 93% 30.23 in 10.0 mi North 2.3 mph - N/A   Overcast
5:58 AM 30.0 °F - 29.5 °F 98% 30.31 in 10.0 mi South 2.3 mph - 0.00 in   Overcast
6:04 AM 30.2 °F - 28.4 °F 93% 30.24 in 9.0 mi South 2.3 mph - N/A   Overcast
6:32 AM 28.4 °F 24.6 °F 28.4 °F 100% 30.25 in 4.0 mi South 3.5 mph - N/A   Overcast
6:33 AM 28.4 °F 24.6 °F 28.4 °F 100% 30.25 in 2.5 mi South 3.5 mph - N/A   Overcast
6:34 AM 28.4 °F 23.3 °F 28.4 °F 100% 30.25 in 2.0 mi South 4.6 mph - N/A   Overcast
6:35 AM 28.4 °F 24.6 °F 28.4 °F 100% 30.25 in 1.5 mi South 3.5 mph - N/A   Overcast
6:36 AM 28.4 °F 24.6 °F 28.4 °F 100% 30.25 in 1.2 mi South 3.5 mph - N/A   Overcast
6:37 AM 28.4 °F 24.6 °F 28.4 °F 100% 30.25 in 1.0 mi South 3.5 mph - N/A   Overcast
6:39 AM 28.4 °F 23.3 °F 28.4 °F 100% 30.25 in 0.8 mi South 4.6 mph - N/A   Overcast
6:40 AM 28.4 °F 24.6 °F 28.4 °F 100% 30.24 in 0.8 mi South 3.5 mph - N/A   Overcast
6:41 AM 28.4 °F 24.6 °F 28.4 °F 100% 30.25 in 0.8 mi South 3.5 mph - N/A   Overcast
6:45 AM 28.4 °F 24.6 °F 28.4 °F 100% 30.25 in 0.8 mi South 3.5 mph - N/A   Overcast
6:47 AM 28.4 °F 24.6 °F 28.4 °F 100% 30.25 in 0.8 mi South 3.5 mph - N/A   Mostly Cloudy
6:48 AM 28.4 °F 24.6 °F 28.4 °F 100% 30.25 in 1.0 mi South 3.5 mph - N/A   Mostly Cloudy
6:50 AM 28.4 °F - 28.4 °F 100% 30.25 in 1.0 mi SSW 2.3 mph - N/A   Mostly Cloudy
6:53 AM 28.4 °F 24.6 °F 28.4 °F 100% 30.25 in 1.0 mi SSW 3.5 mph - N/A   Mostly Cloudy
6:55 AM 28.4 °F 24.6 °F 28.4 °F 100% 30.25 in 1.0 mi SSW 3.5 mph - N/A   Mostly Cloudy
6:56 AM 28.4 °F - 28.4 °F 100% 30.25 in 0.8 mi SSW 2.3 mph - N/A   Mostly Cloudy
6:57 AM 28.4 °F - 28.4 °F 100% 30.25 in 0.5 mi SSW 2.3 mph - N/A Fog Light Freezing Fog
6:58 AM 28.4 °F - 28.4 °F 100% 30.32 in 0.5 mi SSW 2.3 mph - N/A Fog Light Freezing Fog
7:00 AM 28.4 °F - 28.4 °F 100% 30.25 in 0.2 mi SSW 2.3 mph - N/A Fog Light Freezing Fog
7:01 AM 28.4 °F - 28.4 °F 100% 30.25 in 0.2 mi SSW 2.3 mph - N/A Fog Light Freezing Fog
7:04 AM 28.4 °F - 28.4 °F 100% 30.25 in 0.2 mi SSW 2.3 mph - N/A Fog Light Freezing Fog
7:07 AM 28.4 °F - 28.4 °F 100% 30.25 in 0.2 mi SW 2.3 mph - N/A Fog Light Freezing Fog
7:09 AM 28.4 °F - 28.4 °F 100% 30.25 in 0.2 mi SW 2.3 mph - N/A Fog Light Freezing Fog
7:11 AM 28.4 °F - 28.4 °F 100% 30.25 in 0.2 mi WSW 2.3 mph - N/A Fog Light Freezing Fog
7:15 AM 28.4 °F 24.6 °F 28.4 °F 100% 30.26 in 0.2 mi WSW 3.5 mph - N/A Fog Light Freezing Fog
7:19 AM 28.4 °F 23.3 °F 28.4 °F 100% 30.26 in 0.2 mi SW 4.6 mph - N/A Fog Light Freezing Fog
7:20 AM 28.4 °F 23.3 °F 28.4 °F 100% 30.26 in 0.5 mi SW 4.6 mph - N/A Fog Light Freezing Fog
7:21 AM 28.4 °F 23.3 °F 28.4 °F 100% 30.26 in 0.5 mi SW 4.6 mph - N/A Fog Light Freezing Fog
7:23 AM 28.4 °F 23.3 °F 28.4 °F 100% 30.26 in 0.8 mi SW 4.6 mph - N/A   Scattered Clouds
7:24 AM 28.4 °F 23.3 °F 28.4 °F 100% 30.26 in 1.0 mi SW 4.6 mph - N/A   Scattered Clouds
7:25 AM 28.4 °F 23.3 °F 28.4 °F 100% 30.26 in 1.2 mi SW 4.6 mph - N/A   Mostly Cloudy
7:26 AM 28.4 °F 23.3 °F 28.4 °F 100% 30.26 in 1.8 mi SW 4.6 mph - N/A   Mostly Cloudy
7:27 AM 28.4 °F 23.3 °F 28.4 °F 100% 30.26 in 3.0 mi WSW 4.6 mph - N/A   Mostly Cloudy
7:31 AM 28.4 °F 24.6 °F 28.4 °F 100% 30.26 in 6.0 mi WSW 3.5 mph - N/A   Mostly Cloudy
7:46 AM 28.4 °F 24.6 °F 28.4 °F 100% 30.26 in 9.0 mi WSW 3.5 mph - N/A   Mostly Cloudy
7:58 AM 28.6 °F - 28.2 °F 99% 30.34 in 9.0 mi SSW 2.3 mph - 0.00 in   Scattered Clouds
7:59 AM 28.4 °F - 28.4 °F 100% 30.26 in 9.0 mi SSW 2.3 mph - N/A   Scattered Clouds
8:29 AM 30.2 °F 25.4 °F 30.2 °F 100% 30.27 in 2.5 mi South 4.6 mph - N/A   Clear
8:30 AM 30.2 °F 26.7 °F 30.2 °F 100% 30.27 in 2.0 mi SSE 3.5 mph - N/A   Clear
8:31 AM 30.2 °F 26.7 °F 30.2 °F 100% 30.27 in 1.8 mi South 3.5 mph - N/A   Clear
8:32 AM 30.2 °F 26.7 °F 30.2 °F 100% 30.27 in 1.5 mi South 3.5 mph - N/A   Clear
8:33 AM 30.2 °F 26.7 °F 30.2 °F 100% 30.27 in 1.2 mi South 3.5 mph - N/A   Clear
8:34 AM 30.2 °F 25.4 °F 30.2 °F 100% 30.27 in 1.0 mi South 4.6 mph - N/A   Clear
8:36 AM 30.2 °F 25.4 °F 30.2 °F 100% 30.27 in 1.0 mi South 4.6 mph - N/A   Clear
8:38 AM 30.2 °F 26.7 °F 30.2 °F 100% 30.27 in 1.0 mi South 3.5 mph - N/A   Clear
8:39 AM 30.2 °F 26.7 °F 30.2 °F 100% 30.27 in 1.0 mi South 3.5 mph - N/A   Clear
8:41 AM 30.2 °F 25.4 °F 30.2 °F 100% 30.27 in 1.0 mi South 4.6 mph - N/A   Clear
8:42 AM 30.2 °F 25.4 °F 30.2 °F 100% 30.27 in 1.2 mi South 4.6 mph - N/A   Clear
8:44 AM 30.2 °F 25.4 °F 30.2 °F 100% 30.27 in 1.5 mi South 4.6 mph - N/A   Clear
8:45 AM 30.2 °F 25.4 °F 30.2 °F 100% 30.27 in 1.8 mi South 4.6 mph - N/A   Clear
8:46 AM 30.2 °F 25.4 °F 30.2 °F 100% 30.28 in 2.0 mi South 4.6 mph - N/A   Clear
8:49 AM 30.2 °F 25.4 °F 30.2 °F 100% 30.27 in 2.5 mi South 4.6 mph - N/A   Partly Cloudy
8:51 AM 30.2 °F 25.4 °F 30.2 °F 100% 30.28 in 3.0 mi South 4.6 mph - N/A   Partly Cloudy
8:58 AM 30.2 °F 25.4 °F 29.8 °F 99% 30.36 in 4.0 mi South 4.6 mph - 0.00 in   Partly Cloudy
9:58 AM 33.3 °F 30.2 °F 32.7 °F 98% 30.37 in 10.0 mi West 3.5 mph - N/A   Partly Cloudy
10:38 AM 39.2 °F - 33.8 °F 81% 30.29 in 10.0 mi Variable 1.2 mph - N/A   Partly Cloudy
10:48 AM 39.2 °F - 32.0 °F 75% 30.29 in 10.0 mi Variable 1.2 mph - N/A   Clear
10:58 AM 40.5 °F - 32.2 °F 72% 30.35 in 10.0 mi Variable 2.3 mph - 0.00 in   Clear
11:08 AM 41.0 °F - 30.2 °F 65% 30.29 in 10.0 mi North 1.2 mph - N/A   Scattered Clouds
11:16 AM - - - N/A% - - Calm Calm - N/A   Unknown
11:17 AM 41.0 °F - 28.4 °F 61% 30.29 in 10.0 mi Calm Calm - N/A   Scattered Clouds
11:35 AM 42.8 °F - 28.4 °F 57% 30.29 in 10.0 mi Variable 2.3 mph - N/A   Scattered Clouds
11:58 AM 43.3 °F 41.7 °F 25.5 °F 49% 30.35 in 10.0 mi North 3.5 mph - 0.00 in   Clear
12:58 PM 44.8 °F 42.4 °F 21.2 °F 39% 30.33 in 10.0 mi Variable 4.6 mph - N/A   Clear
1:58 PM 47.7 °F - 20.8 °F 35% 30.31 in 10.0 mi NE 5.8 mph - N/A   Clear
2:58 PM 48.0 °F - 23.2 °F 38% 30.30 in 10.0 mi NW 8.1 mph - N/A   Clear
3:58 PM 47.3 °F - 21.6 °F 36% 30.30 in 10.0 mi SW 10.4 mph - N/A   Clear
4:58 PM 47.7 °F - 21.0 °F 35% 30.28 in 10.0 mi SSW 6.9 mph - N/A   Clear
5:58 PM 45.0 °F 41.8 °F 23.2 °F 42% 30.28 in 10.0 mi SW 5.8 mph - N/A   Clear
6:19 PM 44.6 °F 42.2 °F 24.8 °F 46% 30.22 in 10.0 mi SW 4.6 mph - N/A   Clear
6:24 PM 42.8 °F 40.1 °F 26.6 °F 53% 30.22 in 10.0 mi SW 4.6 mph - N/A   Clear
6:58 PM 41.5 °F 37.8 °F 27.1 °F 57% 30.28 in 10.0 mi SW 5.8 mph - 0.00 in   Partly Cloudy
7:58 PM 40.1 °F 36.9 °F 26.4 °F 58% 30.28 in 10.0 mi SSW 4.6 mph - N/A   Partly Cloudy
8:58 PM 41.0 °F 39.0 °F 24.3 °F 51% 30.28 in 10.0 mi South 3.5 mph - N/A   Overcast
9:58 PM 39.2 °F 37.0 °F 27.0 °F 62% 30.26 in 10.0 mi South 3.5 mph - N/A   Overcast
10:58 PM 38.5 °F 36.1 °F 27.0 °F 63% 30.24 in 10.0 mi South 3.5 mph - N/A   Overcast
11:58 PM 38.5 °F - 27.0 °F 63% 30.25 in 10.0 mi South 2.3 mph - N/A   Mostly Cloudy